Content
SEND FEEDBACK

Daily
Averages
Monthly
Summary
United States of America

SOUTH LAKE TAHOE - AIRPORT, CALIFORNIA


Home > North America > United States > California
Elevation: 6250 feet     Latitude: 38 54N     Longitude: 120 00W

WEATHER
 
SELECT A DAY
Number of Records: 176,955;   Date Range: 1/1/95 - 10/19/14
 
SHARE

PRINT THIS DATA

[ ← Previous Day ]
WEATHER ALMANAC - APRIL 28, 2013
[ Next Day → ]
[ °C ]   °F
Weather ElementAverageHighLow
Temperature53.6 °F72 °F (2:53 pm)30 °F (6:53 am)
Dewpoint27.3 °F39 °F (9:53 pm)19 °F (1:53 pm)
Humidity43.6 %75 % (2:53 am)13 % (2:53 pm)
Barometer30.11 in30.19 in (6:53 am)30.04 in (11:53 pm)
Wind Speed3 mph9.2 mph (1:53 pm)
Weather ElementAverage
Visibility10 mi
Wind DirectionENE (59.5 °)

Weather ElementTotal
Precipitation---
Heating Degree Days14 (Base 65)
Growing Degree Days1 (Base 50)
Averaged from 22 records on April 28, 2013
WEATHER CONDITIONS BREAKOUT
WIND DIRECTION BREAKOUT
WEATHER BY HOUR - APRIL 28, 2013
[ °C ]   °F
Local TimeTemperatureDewpointHumidityBarometerVisibilityWind DirectionWind SpeedGust SpeedPrecipitationEventsConditions
1:53 AM36.0 °F27.0 °F70 %30.18 in10.0 miCalmClear
2:53 AM33.1 °F26.1 °F75 %30.17 in10.0 miSSW (200°)3.5 mphClear
3:53 AM33.1 °F24.1 °F70 %30.17 in10.0 miCalmClear
4:53 AM30.9 °F23.0 °F72 %30.16 in10.0 miCalmClear
6:53 AM30.0 °F23.0 °F75 %30.19 in10.0 miSouth (170°)3.5 mphClear
7:53 AM39.0 °F24.1 °F55 %30.18 in10.0 miCalmClear
8:53 AM52.0 °F21.0 °F30 %30.16 in10.0 miNE (40°)4.6 mphClear
9:53 AM57.9 °F26.1 °F30 %30.14 in10.0 miVariable4.6 mphClear
10:53 AM64.0 °F21.9 °F20 %30.12 in10.0 miENE (60°)3.5 mphClear
11:53 AM63.0 °F28.0 °F27 %30.13 in10.0 miVariable4.6 mphClear
12:53 PM64.9 °F21.0 °F19 %30.12 in10.0 miVariable4.6 mphClear
1:53 PM70.0 °F19.0 °F14 %30.10 in10.0 miNNE (30°)9.2 mphClear
2:53 PM72.0 °F19.0 °F13 %30.07 in10.0 miSSW (210°)8.1 mphClear
3:53 PM72.0 °F19.9 °F14 %30.06 in10.0 miVariable3.5 mphClear
4:53 PM71.1 °F26.1 °F19 %30.05 in10.0 miVariable3.5 mphClear
5:53 PM70.0 °F30.0 °F23 %30.06 in10.0 miCalmClear
6:53 PM64.0 °F36.0 °F35 %30.06 in10.0 miSSW (210°)4.6 mphClear
7:53 PM57.9 °F36.0 °F44 %30.06 in10.0 miCalmClear
8:53 PM54.0 °F37.9 °F55 %30.05 in10.0 miCalmClear
9:53 PM50.0 °F39.0 °F66 %30.06 in10.0 miCalmClear
10:53 PM48.0 °F37.0 °F66 %30.05 in10.0 miSouth (180°)3.5 mphClear
11:53 PM46.0 °F36.0 °F68 %30.04 in10.0 miSSW (210°)4.6 mphClear
Hourly data recorded from KTVL, located miles away from South Lake Tahoe - Airport, California







STORIES FROM OUR PARTNERS